User: anonymous   Login
Location: Chircca
(13.7944°S, 72.0608°W)
Time: 08:55:19
(UTC+00:00)
Language:

Meteor 1-21 - Orbit

View from above orbital plane
View from above orbital plane
View from above satellite
View from above satellite

Ground track
Ground track

The orbit data is extracted from the following two-line orbital elements,

1  7714U 75023A   20265.72327544 -.00000030  00000-0 -24868-4 0  9992
2  7714  81.2073 110.4575 0030975 138.7061 221.6460 14.08019958653005
Epoch (UTC): 21 September 2020 17:21:30
Eccentricity: 0.0030975
inclination: 81.2073°
perigee height: 844 km
apogee height: 888 km
right ascension of ascending node: 110.4575°
argument of perigee: 138.7061°
revolutions per day: 14.08019958
mean anomaly at epoch: 221.6460°
orbit number at epoch: 65300

The dashed part of the orbit path shows where the satellite is in the earth's shadow,  

DLR